H1 CPF 2 NER 2025 11 23 9 327 01 glonass132 H2 1401201 9132 39620 2025 11 23 0 0 0 2025 11 26 23 45 0 900 1 1 0 0 0 1 H9 10 0 61002 0.00000 0 11337102.847 4190345.301 22491807.766 10 0 61002 900.00000 0 12014447.309 6814096.255 21477969.799 10 0 61002 1800.00000 0 12842242.568 9236167.904 20048373.893 10 0 61002 2700.00000 0 13778017.037 11403075.165 18230751.752 10 0 61002 3600.00000 0 14771280.446 13271287.276 16060310.191 10 0 61002 4500.00000 0 15765692.692 14808785.521 13579056.008 10 0 61002 5400.00000 0 16701494.453 15996148.030 10834992.523 10 0 61002 6300.00000 0 17518098.719 16827117.991 7881202.281 10 0 61002 7200.00000 0 18156735.558 17308632.650 4774832.455 10 0 61002 8100.00000 0 18563039.960 17460312.554 1576001.428 10 0 61002 9000.00000 0 18689474.635 17313432.608 -1653353.446 10 0 61002 9900.00000 0 18497486.000 16909417.932 -4850665.470 10 0 61002 10800.00000 0 17959302.403 16297927.290 -7953943.344 10 0 61002 11700.00000 0 17059297.969 15534604.044 -10902968.211 10 0 61002 12600.00000 0 15794863.334 14678588.734 -13640460.010 10 0 61002 13500.00000 0 14176744.784 13789897.489 -16113190.655 10 0 61002 14400.00000 0 12228835.269 12926776.417 -18273022.265 10 0 61002 15300.00000 0 9987423.661 12143143.416 -20077849.986 10 0 61002 16200.00000 0 7499931.174 11486225.519 -21492430.635 10 0 61002 17100.00000 0 4823185.432 10994491.896 -22489080.437 10 0 61002 18000.00000 0 2021302.206 10695970.570 -23048227.522 10 0 61002 18900.00000 0 -836738.453 10607020.915 -23158807.567 10 0 61002 19800.00000 0 -3679721.901 10731614.957 -22818493.873 10 0 61002 20700.00000 0 -6436925.440 11061159.113 -22033756.373 10 0 61002 21600.00000 0 -9040828.374 11574865.140 -20819747.343 10 0 61002 22500.00000 0 -11429692.473 12240655.639 -19200015.069 10 0 61002 23400.00000 0 -13549904.726 13016566.611 -17206050.224 10 0 61002 24300.00000 0 -15357984.103 13852588.057 -14876673.231 10 0 61002 25200.00000 0 -16822167.963 14692864.630 -12257274.327 10 0 61002 26100.00000 0 -17923511.473 15478162.569 -9398921.311 10 0 61002 27000.00000 0 -18656454.173 16148497.438 -6357353.000 10 0 61002 27900.00000 0 -19028830.574 16645810.076 -3191878.990 10 0 61002 28800.00000 0 -19061325.588 16916575.876 35791.458 10 0 61002 29700.00000 0 -18786399.443 16914235.505 3262767.008 10 0 61002 30600.00000 0 -18246729.516 16601342.866 6426213.022 10 0 61002 31500.00000 0 -17493237.123 15951338.546 9464585.766 10 0 61002 32400.00000 0 -16582784.841 14949873.294 12318836.831 10 0 61002 33300.00000 0 -15575643.612 13595625.618 14933563.468 10 0 61002 34200.00000 0 -14532838.101 11900579.371 17258082.113 10 0 61002 35100.00000 0 -13513483.310 9889750.238 19247404.463 10 0 61002 36000.00000 0 -12572224.939 7600373.276 20863097.922 10 0 61002 36900.00000 0 -11756890.919 5080586.182 22074014.898 10 0 61002 37800.00000 0 -11106451.862 2387663.692 22856878.372 10 0 61002 38700.00000 0 -10649374.622 -414123.272 23196714.109 10 0 61002 39600.00000 0 -10402436.319 -3255934.978 23087122.854 10 0 61002 40500.00000 0 -10370046.720 -6066976.869 22530388.804 10 0 61002 41400.00000 0 -10544105.690 -8777193.006 21537423.511 10 0 61002 42300.00000 0 -10904400.290 -11319928.988 20127547.170 10 0 61002 43200.00000 0 -11419523.993 -13634455.913 18328111.909 10 0 61002 44100.00000 0 -12048279.034 -15668252.807 16173974.290 10 0 61002 45000.00000 0 -12741503.213 -17378954.819 13706826.766 10 0 61002 45900.00000 0 -13444245.013 -18735888.061 10974400.185 10 0 61002 46800.00000 0 -14098196.539 -19721128.832 8029551.679 10 0 61002 47700.00000 0 -14644283.015 -20330044.144 4929254.437 10 0 61002 48600.00000 0 -15025300.876 -20571291.739 1733507.690 10 0 61002 49500.00000 0 -15188494.194 -20466279.821 -1495813.119 10 0 61002 50400.00000 0 -15087961.313 -20048109.020 -4696144.627 10 0 61002 51300.00000 0 -14686790.271 -19360040.506 -7805440.063 10 0 61002 52200.00000 0 -13958832.425 -18453553.934 -10763367.164 10 0 61002 53100.00000 0 -12890038.426 -17386076.103 -13512476.520 10 0 61002 54000.00000 0 -11479298.614 -16218475.156 -15999317.799 10 0 61002 54900.00000 0 -9738750.354 -15012425.143 -18175482.068 10 0 61002 55800.00000 0 -7693536.931 -13827751.528 -19998549.663 10 0 61002 56700.00000 0 -5381025.506 -12719869.246 -21432924.755 10 0 61002 57600.00000 0 -2849514.241 -11737421.342 -22450539.812 10 0 61002 58500.00000 0 -156480.247 -10920218.095 -23031415.471 10 0 61002 59400.00000 0 2633560.553 -10297564.089 -23164064.107 10 0 61002 60300.00000 0 5451494.016 -9887044.589 -22845728.215 10 0 61002 61200.00000 0 8226248.097 -9693823.328 -22082447.944 10 0 61002 62100.00000 0 10887523.418 -9710482.253 -20888955.386 10 0 61002 63000.00000 0 13368500.289 -9917410.783 -19288396.659 10 0 61002 63900.00000 0 15608408.891 -10283728.704 -17311886.376 10 0 61002 64800.00000 0 17554854.729 -10768703.864 -14997902.607 10 0 61002 65700.00000 0 19165801.507 -11323604.501 -12391533.831 10 0 61002 66600.00000 0 20411127.887 -11893907.114 -9543592.776 10 0 61002 67500.00000 0 21273692.669 -12421765.293 -6509614.980 10 0 61002 68400.00000 0 21749863.912 -12848633.470 -3348762.588 10 0 61002 69300.00000 0 21849490.505 -13117932.805 -122656.113 10 0 61002 70200.00000 0 21595318.685 -13177644.553 3105841.514 10 0 61002 71100.00000 0 21021879.839 -12982719.560 6273863.317 10 0 61002 72000.00000 0 20173898.562 -12497200.607 9319773.352 10 0 61002 72900.00000 0 19104290.295 -11695967.032 12184373.192 10 0 61002 73800.00000 0 17871835.092 -10566027.494 14812055.506 10 0 61002 74700.00000 0 16538627.354 -9107306.395 17151881.864 10 0 61002 75600.00000 0 15167410.201 -7332891.203 19158564.051 10 0 61002 76500.00000 0 13818907.308 -5268730.801 20793330.567 10 0 61002 77400.00000 0 12549264.264 -2952798.112 22024662.640 10 0 61002 78300.00000 0 11407706.132 -433752.446 22828887.062 10 0 61002 79200.00000 0 10434508.082 2230842.457 23190616.044 10 0 61002 80100.00000 0 9659362.350 4976670.672 23103027.315 10 0 61002 81000.00000 0 9100207.864 7735097.804 22567980.607 10 0 61002 81900.00000 0 8762569.469 10435786.240 21595969.561 10 0 61002 82800.00000 0 8639432.548 13009384.872 20205910.858 10 0 61002 83700.00000 0 8711656.764 15390183.523 18424775.082 10 0 61002 84600.00000 0 8948910.570 17518623.912 16287066.377 10 0 61002 85500.00000 0 9311086.809 19343564.810 13834160.538 10 0 61003 0.00000 0 9750139.972 20824208.993 11113513.751 10 0 61003 900.00000 0 10212268.638 21931614.054 8177754.716 10 0 61003 1800.00000 0 10640351.436 22649723.383 5083680.267 10 0 61003 2700.00000 0 10976535.680 22975877.646 1891167.860 10 0 61003 3600.00000 0 11164869.827 22920783.607 -1337971.575 10 0 61003 4500.00000 0 11153869.590 22507942.321 -4541180.539 10 0 61003 5400.00000 0 10898909.659 21772560.014 -7656359.174 10 0 61003 6300.00000 0 10364339.864 20759986.583 -10623064.003 10 0 61003 7200.00000 0 9525235.689 19523746.403 -13383678.220 10 0 61003 8100.00000 0 8368707.983 18123243.205 -15884530.959 10 0 61003 9000.00000 0 6894714.781 16621234.637 -18076943.703 10 0 61003 9900.00000 0 5116338.770 15081181.966 -19918183.223 10 0 61003 10800.00000 0 3059516.123 13564585.873 -21372302.102 10 0 61003 11700.00000 0 762225.337 12128420.134 -22410849.917 10 0 61003 12600.00000 0 -1726832.590 10822771.177 -23013440.495 10 0 61003 13500.00000 0 -4350009.840 9688783.104 -23168163.358 10 0 61003 14400.00000 0 -7042871.173 8756995.100 -22871830.369 10 0 61003 15300.00000 0 -9736648.314 8046141.876 -22130051.717 10 0 61003 16200.00000 0 -12360887.863 7562468.287 -20957138.728 10 0 61003 17100.00000 0 -14846182.572 7299587.577 -19375834.336 10 0 61003 18000.00000 0 -17126871.797 7238889.598 -17416875.673 10 0 61003 18900.00000 0 -19143597.767 7350481.833 -15118396.648 10 0 61003 19800.00000 0 -20845610.058 7594623.118 -12525181.895 10 0 61003 20700.00000 0 -22192720.951 7923588.686 -9687786.770 10 0 61003 21600.00000 0 -23156829.163 8283886.415 -6661541.109 10 0 61003 22500.00000 0 -23722947.713 8618728.878 -3505457.125 10 0 61003 23400.00000 0 -23889692.969 8870654.681 -281064.066 10 0 61003 24300.00000 0 -23669215.092 8984186.143 2948806.056 10 0 61003 25200.00000 0 -23086574.108 8908408.892 6121256.453 10 0 61003 26100.00000 0 -22178589.633 8599362.624 9174561.484 10 0 61003 27000.00000 0 -20992214.724 8022140.632 12049375.210 10 0 61003 27900.00000 0 -19582504.409 7152608.666 14689888.155 10 0 61003 28800.00000 0 -18010266.302 5978670.278 17044909.360 10 0 61003 29700.00000 0 -16339493.624 4501025.482 19068852.855 10 0 61003 30600.00000 0 -14634689.399 2733391.214 20722610.143 10 0 61003 31500.00000 0 -12958194.387 702174.889 21974292.881 10 0 61003 32400.00000 0 -11367630.290 -1554384.799 22799832.912 10 0 61003 33300.00000 0 -9913564.097 -3987573.637 23183429.753 10 0 61003 34200.00000 0 -8637489.644 -6539997.703 23117838.566 10 0 61003 35100.00000 0 -7570208.605 -9147744.914 22604494.671 10 0 61003 36000.00000 0 -6730676.359 -11742823.298 21653473.455 10 0 61003 36900.00000 0 -6125358.727 -14255775.971 20283287.361 10 0 61003 37800.00000 0 -5748124.472 -16618365.812 18520524.331 10 0 61003 38700.00000 0 -5580676.501 -18766220.151 16399334.660 10 0 61003 39600.00000 0 -5593502.621 -20641327.415 13960775.735 10 0 61003 40500.00000 0 -5747305.434 -22194283.683 11252026.558 10 0 61003 41400.00000 0 -5994851.312 -23386197.153 8325486.145 10 0 61003 42300.00000 0 -6283161.107 -24190172.287 5237772.115 10 0 61003 43200.00000 0 -6555951.011 -24592312.453 2048637.626 10 0 61003 44100.00000 0 -6756221.475 -24592199.432 -1180173.524 10 0 61003 45000.00000 0 -6828885.632 -24202829.555 -4386112.389 10 0 61003 45900.00000 0 -6723326.727 -23450008.607 -7507028.784 10 0 61003 46800.00000 0 -6395776.591 -22371229.973 -10482370.832 10 0 61003 47700.00000 0 -5811414.286 -21014082.066 -13254357.171 10 0 61003 48600.00000 0 -4946095.350 -19434250.716 -15769099.205 10 0 61003 49500.00000 0 -3787637.129 -17693199.237 -17977651.534 10 0 61003 50400.00000 0 -2336604.052 -15855622.617 -19836969.863 10 0 61003 51300.00000 0 -606557.336 -13986781.861 -21310757.392 10 0 61003 52200.00000 0 1376244.025 -12149829.857 -22370182.624 10 0 61003 53100.00000 0 3573681.155 -10403240.754 -22994453.949 10 0 61003 54000.00000 0 5937119.563 -8798450.718 -23171238.930 10 0 61003 54900.00000 0 8409205.851 -7377809.364 -22896919.195 10 0 61003 55800.00000 0 10926043.513 -6172928.258 -22176674.904 10 0 61003 56700.00000 0 13419658.192 -5203496.358 -21024396.085 10 0 61003 57600.00000 0 15820650.065 -4476612.572 -19462421.530 10 0 61003 58500.00000 0 18060922.550 -3986663.799 -17521109.480 10 0 61003 59400.00000 0 20076372.819 -3715753.555 -15238247.839 10 0 61003 60300.00000 0 21809430.752 -3634662.672 -12658315.096 10 0 61003 61200.00000 0 23211339.014 -3704300.744 -9831606.491 10 0 61003 62100.00000 0 24244077.715 -3877585.656 -6813243.008 10 0 61003 63000.00000 0 24881852.207 -4101670.090 -3662083.438 10 0 61003 63900.00000 0 25112081.182 -4320418.806 -439562.072 10 0 61003 64800.00000 0 24935843.783 -4477029.712 2791523.796 10 0 61003 65700.00000 0 24367767.708 -4516685.678 5968251.292 10 0 61003 66600.00000 0 23435364.290 -4389122.931 9028808.611 10 0 61003 67500.00000 0 22177840.269 -4051005.851 11913705.517 10 0 61003 68400.00000 0 20644438.086 -3468006.697 14566933.218 10 0 61003 69300.00000 0 18892376.400 -2616501.871 16937050.601 10 0 61003 70200.00000 0 16984478.910 -1484813.114 18978175.865 10 0 61003 71100.00000 0 14986592.154 -73941.646 20650864.977 10 0 61003 72000.00000 0 12964901.035 1602235.085 21922861.027 10 0 61003 72900.00000 0 10983254.276 3517311.710 22769701.491 10 0 61003 73800.00000 0 9100610.712 5633233.328 23175173.322 10 0 61003 74700.00000 0 7368711.614 7901667.058 23131608.834 10 0 61003 75600.00000 0 5830074.159 10265809.741 22640018.216 10 0 61003 76500.00000 0 4516387.417 12662557.157 21710057.464 10 0 61003 77400.00000 0 3447375.386 15024945.439 20359833.252 10 0 61003 78300.00000 0 2630172.193 17284764.590 18615549.005 10 0 61003 79200.00000 0 2059233.543 19375237.004 16510998.977 10 0 61003 80100.00000 0 1716786.532 21233651.303 14086919.719 10 0 61003 81000.00000 0 1573797.935 22803843.544 11390210.673 10 0 61003 81900.00000 0 1591419.828 24038423.930 8473037.903 10 0 61003 82800.00000 0 1722851.786 24900657.296 5391837.170 10 0 61003 83700.00000 0 1915541.664 25365919.645 2206234.411 10 0 61003 84600.00000 0 2113632.836 25422670.122 -1022096.626 10 0 61003 85500.00000 0 2260555.334 25072897.579 -4230618.396 10 0 61004 0.00000 0 2301652.045 24332022.535 -7357132.812 10 0 61004 900.00000 0 2186729.344 23228257.186 -10340982.655 10 0 61004 1800.00000 0 1872424.245 21801450.172 -13124223.959 10 0 61004 2700.00000 0 1324287.571 20101461.861 -15652752.354 10 0 61004 3600.00000 0 518493.978 18186137.817 -17877357.224 10 0 61004 4500.00000 0 -556894.920 16118963.789 -19754684.611 10 0 61004 5400.00000 0 -1901169.655 13966499.480 -21248089.473 10 0 61004 6300.00000 0 -3500748.699 11795697.756 -22328360.158 10 0 61004 7200.00000 0 -5329502.994 9671221.057 -22974300.282 10 0 61004 8100.00000 0 -7349618.206 7652867.161 -23173155.842 10 0 61004 9000.00000 0 -9512960.972 5793212.084 -22920878.311 10 0 61004 9900.00000 0 -11762893.984 4135569.133 -22222217.516 10 0 61004 10800.00000 0 -14036465.459 2712349.923 -21090641.468 10 0 61004 11700.00000 0 -16266882.366 1543896.459 -19548083.647 10 0 61004 12600.00000 0 -18386164.197 637833.501 -17624521.810 10 0 61004 13500.00000 0 -20327865.969 -11031.592 -15357395.872 10 0 61004 14400.00000 0 -22029755.658 -420257.728 -12790875.889 10 0 61004 15300.00000 0 -23436332.778 -618787.451 -9974994.483 10 0 61004 16200.00000 0 -24501081.267 -645475.525 -6964661.142 10 0 61004 17100.00000 0 -25188361.018 -547192.566 -3818578.531 10 0 61004 18000.00000 0 -25474857.782 -376585.895 -598083.239 10 0 61004 18900.00000 0 -25350530.155 -189594.575 2634064.890 10 0 61004 19800.00000 0 -24819014.047 -42826.058 5814919.610 10 0 61004 20700.00000 0 -23897468.375 9092.388 8882585.638 10 0 61004 21600.00000 0 -22615869.750 -83926.385 11777431.051 10 0 61004 22500.00000 0 -21015787.395 -365067.727 14443250.239 10 0 61004 23400.00000 0 -19148691.465 -868552.368 16828354.256 10 0 61004 24300.00000 0 -17073867.400 -1617959.789 18886567.542 10 0 61004 25200.00000 0 -14856024.975 -2625008.287 20578112.282 10 0 61004 26100.00000 0 -12562702.923 -3888842.520 21870364.387 10 0 61004 27000.00000 0 -10261577.744 -5395857.827 22738467.924 10 0 61004 27900.00000 0 -8017788.435 -7120068.030 23165797.840 10 0 61004 28800.00000 0 -5891387.498 -9024000.890 23144263.722 10 0 61004 29700.00000 0 -3935022.606 -11060083.655 22674450.371 10 0 61004 30600.00000 0 -2191943.219 -13172461.231 21765593.769 10 0 61004 31500.00000 0 -694412.723 -15299171.804 20435393.877 10 0 61004 32400.00000 0 537410.237 -17374590.450 18709668.351 10 0 61004 33300.00000 0 1496076.905 -19332040.294 16621853.876 10 0 61004 34200.00000 0 2186916.725 -21106464.045 14212364.369 10 0 61004 35100.00000 0 2627567.464 -22637046.113 11527817.684 10 0 61004 36000.00000 0 2846987.798 -23869677.451 8620144.710 10 0 61004 36900.00000 0 2883994.212 -24759161.357 5545596.967 10 0 61004 37800.00000 0 2785383.699 -25271068.904 2363670.677 10 0 61004 38700.00000 0 2603720.924 -25383166.708 -864033.018 10 0 61004 39600.00000 0 2394882.539 -25086357.106 -4074990.569 10 0 61004 40500.00000 0 2215461.704 -24385090.749 -7206959.151 10 0 61004 41400.00000 0 2120141.964 -23297233.275 -10199177.693 10 0 61004 42300.00000 0 2159151.257 -21853390.293 -12993542.793 10 0 61004 43200.00000 0 2375903.863 -20095717.427 -15535736.849 10 0 61004 44100.00000 0 2804930.593 -18076263.648 -17776286.465 10 0 61004 45000.00000 0 3470185.813 -15854915.713 -19671530.267 10 0 61004 45900.00000 0 4383804.370 -13497028.365 -21184476.964 10 0 61004 46800.00000 0 5545362.904 -11070838.240 -22285536.402 10 0 61004 47700.00000 0 6941678.948 -8644768.815 -22953108.696 10 0 61004 48600.00000 0 8547158.758 -6284738.506 -23174019.132 10 0 61004 49500.00000 0 10324681.652 -4051584.193 -22943789.455 10 0 61004 50400.00000 0 12226985.890 -1998707.958 -22266739.176 10 0 61004 51300.00000 0 14198499.720 -170045.648 -21155913.904 10 0 61004 52200.00000 0 16177542.049 1401557.462 -19632841.032 10 0 61004 53100.00000 0 18098801.024 2695495.576 -17727116.661 10 0 61004 54000.00000 0 19895986.595 3704027.666 -15475831.150 10 0 61004 54900.00000 0 21504545.193 4432353.162 -12922844.131 10 0 61004 55800.00000 0 22864321.513 4898135.501 -10117923.199 10 0 61004 56700.00000 0 23922054.358 5130494.770 -7115763.551 10 0 61004 57600.00000 0 24633600.294 5168513.493 -3974908.590 10 0 61004 58500.00000 0 24965790.455 5059320.675 -756593.834 10 0 61004 59400.00000 0 24897841.535 4855837.292 2476461.811 10 0 61004 60300.00000 0 24422261.341 4614281.011 5661292.220 10 0 61004 61200.00000 0 23545210.954 4391537.954 8735921.989 10 0 61004 62100.00000 0 22286309.091 4242514.773 11640580.641 10 0 61004 63000.00000 0 20677888.021 4217584.599 14318868.576 10 0 61004 63900.00000 0 18763733.744 4360235.898 16718851.510 10 0 61004 64800.00000 0 16597364.753 4705023.991 18794062.246 10 0 61004 65700.00000 0 14239922.749 5275911.563 20504390.944 10 0 61004 66600.00000 0 11757764.442 6085067.572 21816847.719 10 0 61004 67500.00000 0 9219855.387 7132174.276 22706184.239 10 0 61004 68400.00000 0 6695074.192 8404270.619 23155364.055 10 0 61004 69300.00000 0 4249538.464 9876137.775 23155874.222 10 0 61004 70200.00000 0 1944062.199 11511210.207 22707873.896 10 0 61004 71100.00000 0 -168151.744 13262974.059 21820178.339 10 0 61004 72000.00000 0 -2043490.480 15076794.769 20510079.622 10 0 61004 72900.00000 0 -3649501.464 16892098.374 18803008.013 10 0 61004 73800.00000 0 -4965991.491 18644816.620 16732040.616 10 0 61004 74700.00000 0 -5985610.696 20269995.180 14337266.378 10 0 61004 75600.00000 0 -6713899.014 21704457.584 11665018.967 10 0 61004 76500.00000 0 -7168794.470 22889415.005 8766991.312 10 0 61004 77400.00000 0 -7379624.692 23772914.006 5699247.787 10 0 61004 78300.00000 0 -7385624.283 24312020.709 2521151.926 10 0 61004 79200.00000 0 -7234040.257 24474650.356 -705770.726 10 0 61004 80100.00000 0 -6977904.901 24240965.527 -3919013.564 10 0 61004 81000.00000 0 -6673569.401 23604283.826 -7056291.603 10 0 61004 81900.00000 0 -6378101.784 22571455.924 -10056743.173 10 0 61004 82800.00000 0 -6146658.649 21162696.670 -12862107.624 10 0 61004 83700.00000 0 -6029941.642 19410874.650 -15417856.343 10 0 61004 84600.00000 0 -6071846.406 17360288.070 -17674255.088 10 0 61004 85500.00000 0 -6307404.021 15064976.365 -19587336.725 10 0 61005 0.00000 0 -6761102.985 12586636.635 -21119764.966 10 0 61005 900.00000 0 -7445664.387 9992229.111 -22241572.540 10 0 61005 1800.00000 0 -8361323.191 7351373.831 -22930756.734 10 0 61005 2700.00000 0 -9495648.842 4733641.942 -23173722.659 10 0 61005 3600.00000 0 -10823914.408 2205857.450 -22965562.530 10 0 61005 4500.00000 0 -12310001.007 -170479.404 -22310165.359 10 0 61005 5400.00000 0 -13907801.279 -2341539.277 -21220153.751 10 0 61005 6300.00000 0 -15563064.309 -4263183.068 -19716647.960 10 0 61005 7200.00000 0 -17215605.284 -5902568.759 -17828860.944 10 0 61005 8100.00000 0 -18801787.249 -7239278.313 -15593531.606 10 0 61005 9000.00000 0 -20257170.269 -8265917.513 -13054206.918 10 0 61005 9900.00000 0 -21519215.697 -8988163.964 -10260386.945 10 0 61005 10800.00000 0 -22529930.480 -9424262.190 -7266549.902 10 0 61005 11700.00000 0 -23238338.777 -9603988.475 -4131077.124 10 0 61005 12600.00000 0 -23602675.362 -9567130.897 -915100.179 10 0 61005 13500.00000 0 -23592207.223 -9361550.987 2318705.871 10 0 61005 14400.00000 0 -23188605.860 -9040911.229 5507357.937 10 0 61005 15300.00000 0 -22386812.188 -8662166.978 8588803.370 10 0 61005 16200.00000 0 -21195357.889 -8282930.999 11503135.951 10 0 61005 17100.00000 0 -19636130.442 -7958823.949 14193764.774 10 0 61005 18000.00000 0 -17743592.759 -7740924.081 16608512.688 10 0 61005 18900.00000 0 -15563491.434 -7673424.566 18700623.064 10 0 61005 19800.00000 0 -13151108.859 -7791597.367 20429655.897 10 0 61005 20700.00000 0 -10569133.272 -8120149.009 21762256.955 10 0 61005 21600.00000 0 -7885236.135 -8672036.569 22672786.536 10 0 61005 22500.00000 0 -5169457.703 -9447792.582 23143797.361 10 0 61005 23400.00000 0 -2491508.955 -10435386.088 23166354.112 10 0 61005 24300.00000 0 81899.274 -11610624.732 22740190.054 10 0 61005 25200.00000 0 2489590.842 -12938080.507 21873699.124 10 0 61005 26100.00000 0 4678219.462 -14372500.229 20583764.576 10 0 61005 27000.00000 0 6604231.578 -15860642.089 18895428.069 10 0 61005 27900.00000 0 8235417.844 -17343462.253 16841405.622 10 0 61005 28800.00000 0 9551990.932 -18758561.144 14461459.420 10 0 61005 29700.00000 0 10547146.749 -20042788.437 11801636.885 10 0 61005 30600.00000 0 11227087.223 -21134899.088 8913390.659 10 0 61005 31500.00000 0 11610504.771 -21978150.407 5852595.416 10 0 61005 32400.00000 0 11727550.588 -22522732.333 2678479.272 10 0 61005 33300.00000 0 11618330.247 -22727929.566 -547510.664 10 0 61005 34200.00000 0 11330989.541 -22563924.909 -3762887.613 10 0 61005 35100.00000 0 10919470.727 -22013167.688 -6905327.294 10 0 61005 36000.00000 0 10441033.148 -21071248.827 -9913870.228 10 0 61005 36900.00000 0 9953642.320 -19747244.438 -12730101.204 10 0 61005 37800.00000 0 9513337.329 -18063511.676 -15299283.129 10 0 61005 38700.00000 0 9171687.654 -16054943.388 -17571423.267 10 0 61005 39600.00000 0 8973447.094 -13767710.644 -19502250.830 10 0 61005 40500.00000 0 8954504.550 -11257543.664 -21054086.598 10 0 61005 41400.00000 0 9140219.210 -8587621.077 -22196587.103 10 0 61005 42300.00000 0 9544211.862 -5826154.074 -22907348.203 10 0 61005 43200.00000 0 10167664.952 -3043764.991 -23172355.513 10 0 61005 44100.00000 0 10999162.779 -310768.827 -22986271.985 10 0 61005 45000.00000 0 12015080.402 2305529.402 -22352556.002 10 0 61005 45900.00000 0 13180506.575 4743408.814 -21283406.645 10 0 61005 46800.00000 0 14450663.249 6949070.807 -19799536.158 10 0 61005 47700.00000 0 15772762.782 8878643.189 -17929773.115 10 0 61005 48600.00000 0 17088225.046 10499766.237 -15710503.386 10 0 61005 49500.00000 0 18335160.867 11792694.182 -13184959.337 10 0 61005 50400.00000 0 19451016.381 12750866.062 -10402371.205 10 0 61005 51300.00000 0 20375265.692 13380922.601 -7416997.595 10 0 61005 52200.00000 0 21052036.799 13702169.497 -4287054.854 10 0 61005 53100.00000 0 21432558.469 13745511.273 -1073567.475 10 0 61005 54000.00000 0 21477323.378 13551902.685 2160836.570 10 0 61005 54900.00000 0 21157875.135 13170385.351 5353160.464 10 0 61005 55800.00000 0 20458143.089 12655794.960 8441277.456 10 0 61005 56700.00000 0 19375268.471 12066238.300 11365148.540 10 0 61005 57600.00000 0 17919887.365 11460448.732 14067994.199 10 0 61005 58500.00000 0 16115859.265 10895133.413 16497396.841 10 0 61005 59400.00000 0 13999453.600 10422425.183 18606312.520 10 0 61005 60300.00000 0 11618029.281 10087546.925 20353972.880 10 0 61005 61200.00000 0 9028263.421 9926786.447 21706660.849 10 0 61005 62100.00000 0 6294003.734 9965866.259 22638346.527 10 0 61005 63000.00000 0 3483834.188 10218775.559 23131172.642 10 0 61005 63900.00000 0 668454.782 10687112.055 23175781.937 10 0 61005 64800.00000 0 -2082016.721 11359959.916 22771481.809 10 0 61005 65700.00000 0 -4700710.680 12214307.852 21926244.416 10 0 61005 66600.00000 0 -7126530.385 13215989.112 20656543.270 10 0 61005 67500.00000 0 -9306433.345 14321103.820 18987030.017 10 0 61005 68400.00000 0 -11197376.694 15477864.339 16950057.741 10 0 61005 69300.00000 0 -12767848.171 16628787.110 14585059.645 10 0 61005 70200.00000 0 -13998921.015 17713140.156 11937794.381 10 0 61005 71100.00000 0 -14884790.556 18669544.885 9059471.581 10 0 61005 72000.00000 0 -15432771.276 19438624.263 6005773.364 10 0 61005 72900.00000 0 -15662755.250 19965587.245 2835789.520 10 0 61005 73800.00000 0 -15606154.963 20202641.653 -389114.200 10 0 61005 74700.00000 0 -15304374.722 20111134.355 -3606473.735 10 0 61005 75600.00000 0 -14806874.565 19663328.559 -6753928.330 10 0 61005 76500.00000 0 -14168907.533 18843742.713 -9770423.421 10 0 61005 77400.00000 0 -13449025.058 17649993.405 -12597391.790 10 0 61005 78300.00000 0 -12706455.080 16093105.116 -15179890.226 10 0 61005 79200.00000 0 -11998463.155 14197271.687 -17467669.598 10 0 61005 80100.00000 0 -11377807.823 11999077.192 -19416157.297 10 0 61005 81000.00000 0 -10890397.864 9546206.477 -20987332.580 10 0 61005 81900.00000 0 -10573250.891 6895697.004 -22150477.283 10 0 61005 82800.00000 0 -10452840.339 4111803.050 -22882786.605 10 0 61005 83700.00000 0 -10543901.792 1263559.714 -23169827.266 10 0 61005 84600.00000 0 -10848750.416 -1577852.910 -23005833.216 10 0 61005 85500.00000 0 -11357139.764 -4341836.267 -22393832.101 99